"America/Chicago Time","Lifetime Energy (kWh)","Power (W)","AC Volts RMS (V) ","AC Amps RMS (mA)","Grid Frequency (Hz)","Inverter Temperature (C)"
"07/07/12 10:46:28","143.8397","160.4","217.43","735","60.0","33"
"07/07/12 10:51:27","143.8523","163.3","217.31","745","60.03","34"
"07/07/12 10:56:28","143.8651","166.1","217.47","757","60.03","33"
"07/07/12 11:01:29","143.8781","166.9","217.36","766","60.03","33"
"07/07/12 11:06:27","143.8911","168.5","217.1","768","60.0","34"
"07/07/12 11:11:28","143.9043","170.1","216.99","775","60.0","34"
"07/07/12 11:16:28","143.9176","170.2","217.82","776","60.03","34"
"07/07/12 11:21:28","143.9309","171.2","217.89","777","60.0","35"
"07/07/12 11:26:27","143.9442","173.6","218.52","786","60.0","34"
"07/07/12 11:31:28","143.9579","175.4","218.08","793","60.0","34"
"07/07/12 11:36:28","143.9716","175.2","217.54","799","60.0","34"
"07/07/12 11:41:27","143.9853","176.2","217.46","800","60.0","35"
"07/07/12 11:46:27","143.999","177.9","217.7","806","60.03","35"
"07/07/12 11:51:27","144.013","179.2","217.85","816","60.07","34"
"07/07/12 11:56:28","144.027","180.0","217.32","824","60.03","34"
"07/07/12 12:01:29","144.0411","179.5","217.3","815","60.03","34"
"07/07/12 12:06:27","144.055","181.0","217.29","823","60.0","34"
"07/07/12 12:11:29","144.0692","181.9","217.55","824","60.03","34"
"07/07/12 12:16:27","144.0833","182.2","217.4","826","60.0","34"
"07/07/12 12:21:27","144.0976","181.3","218.34","817","60.0","35"
"07/07/12 12:26:28","144.1117","180.8","218.53","816","60.0","35"
"07/07/12 12:31:28","144.126","183.5","217.87","832","60.0","35"
"07/07/12 12:36:27","144.1402","183.6","218.15","825","60.03","35"
"07/07/12 12:41:28","144.1546","183.1","218.59","825","60.03","35"
"07/07/12 12:46:28","144.169","183.5","217.87","832","60.0","35"
"07/07/12 12:51:29","144.1832","182.5","216.99","830","60.0","35"
"07/07/12 12:56:27","144.1973","180.9","217.33","828","60.03","35"
"07/07/12 13:01:29","144.2115","180.3","217.2","824","60.03","36"
"07/07/12 13:06:28","144.2254","180.8","217.77","820","60.0","36"
"07/07/12 13:11:29","144.2395","180.8","217.55","822","60.03","36"
"07/07/12 13:16:27","144.2535","179.6","217.59","815","60.03","36"
"07/07/12 13:21:27","144.2676","179.8","217.11","821","60.0","36"
"07/07/12 13:26:29","144.2816","178.4","217.12","811","60.0","36"
"07/07/12 13:31:29","144.2955","177.8","217.89","805","60.03","36"
"07/07/12 13:36:27","144.3091","176.8","216.61","808","60.03","36"
"07/07/12 13:41:28","144.323","177.8","217.48","812","60.03","36"
"07/07/12 13:46:29","144.3368","175.9","217.14","802","60.0","36"
"07/07/12 13:51:27","144.3504","173.6","217.13","794","60.03","36"
"07/07/12 13:56:28","144.3639","173.4","217.5","795","60.0","36"
"07/07/12 14:01:28","144.3774","171.8","217.72","785","60.03","36"
"07/07/12 14:06:29","144.3907","170.9","217.32","786","60.0","36"
"07/07/12 14:11:27","144.404","169.3","217.05","774","60.03","36"
"07/07/12 14:16:29","144.4171","167.4","217.19","764","60.03","36"
"07/07/12 14:21:27","144.43","166.5","216.79","766","60.0","36"
"07/07/12 14:26:28","144.443","165.0","216.96","755","60.0","36"
"07/07/12 14:31:29","144.4558","162.3","217.44","740","60.0","36"
"07/07/12 14:36:27","144.4683","161.2","217.73","739","60.03","36"
"07/07/12 14:41:27","144.4808","159.1","217.84","727","60.03","36"
"07/07/12 14:46:28","144.4931","155.7","217.35","718","60.0","37"
"07/07/12 14:51:28","144.5052","153.7","216.36","703","60.0","37"
"07/07/12 14:56:29","144.5171","151.1","217.36","698","60.03","37"
"07/07/12 15:01:28","144.5289","150.3","217.11","698","60.03","37"
"07/07/12 15:06:27","144.5404","147.2","216.88","683","60.0","38"
"07/07/12 15:11:28","144.5517","145.3","216.67","671","60.03","38"
"07/07/12 15:16:28","144.5629","141.5","216.86","650","60.03","38"
"07/07/12 15:21:28","144.5738","138.8","216.05","651","60.03","38"
"07/07/12 15:26:29","144.5846","137.5","216.48","640","60.0","38"
"07/07/12 15:31:28","144.5952","134.5","215.65","628","60.03","39"
"07/07/12 15:36:28","144.6056","132.0","214.25","622","60.0","39"
"07/07/12 15:41:29","144.6158","128.7","215.77","607","60.03","39"
"07/07/12 15:46:28","144.6257","125.9","215.33","592","60.0","39"
"07/07/12 15:51:28","144.6355","124.2","216.27","583","60.03","39"
"07/07/12 15:56:28","144.6449","120.6","216.51","568","60.0","39"
"07/07/12 16:01:29","144.6542","116.5","216.35","553","60.03","39"
"07/07/12 16:06:27","144.6631","114.1","216.17","535","60.07","39"
"07/07/12 16:11:28","144.6719","111.0","216.19","525","60.07","39"
"07/07/12 16:16:29","144.6804","108.3","215.43","519","60.03","39"
"07/07/12 16:21:27","144.6887","105.5","215.48","499","60.03","39"
"07/07/12 16:26:29","144.6969","102.2","215.36","488","60.03","38"
"07/07/12 16:31:27","144.7047","99.1","214.69","479","60.03","38"
"07/07/12 16:36:28","144.7122","94.8","215.19","458","60.03","38"
"07/07/12 16:41:28","144.7195","91.7","215.0","445","60.03","38"
"07/07/12 16:46:28","144.7266","89.2","214.69","436","60.0","37"
"07/07/12 16:51:27","144.7333","85.5","214.35","417","60.03","37"
"07/07/12 16:56:28","144.7398","82.1","214.09","405","60.03","37"
"07/07/12 17:01:28","144.7461","77.7","214.74","386","60.0","37"
"07/07/12 17:06:28","144.752","74.1","215.23","367","60.03","37"
"07/07/12 17:11:29","144.7576","70.3","214.49","352","60.0","37"
"07/07/12 17:16:27","144.7629","66.5","213.87","339","60.0","37"
"07/07/12 17:21:28","144.7679","62.9","214.26","319","60.03","37"
"07/07/12 17:26:28","144.7722","40.1","214.49","387","60.03","36"
"07/07/12 17:31:29","144.7761","56.1","213.98","119","59.96","36"
"07/07/12 17:36:27","144.78","53.7","213.86","345","60.03","36"
"07/07/12 17:41:27","144.7838","53.7","213.96","179","60.0","35"
"07/07/12 17:46:27","144.7873","37.1","213.66","151","60.03","36"
"07/07/12 17:51:28","144.7905","33.3","213.86","87","60.07","35"
"07/07/12 17:56:28","144.7933","31.7","213.67","208","60.03","35"
"07/07/12 18:01:27","144.7959","32.6","213.78","244","60.0","35"
"07/07/12 18:06:27","144.7982","26.1","214.19","60","60.03","34"
"07/07/12 18:11:28","144.8003","27.0","214.5","61","60.03","34"
"07/07/12 18:16:27","144.802","20.7","213.9","194","60.03","34"
"07/07/12 18:21:27","144.8035","30.1","214.03","101","60.03","33"
"07/07/12 18:26:29","144.8048","11.4","214.27","6","60.03","33"
"07/07/12 18:31:28","144.8059","12.7","213.45","3","60.0","33"
"07/07/12 18:36:27","144.8067","12.2","213.29","2","60.03","32"
"07/07/12 18:41:28","144.8075","15.3","213.51","256","60.07","32"
"07/07/12 18:46:28","144.808","0.0","213.59","0","60.03","32"
"07/07/12 18:51:27","144.8085","11.9","212.78","4","60.03","32"
"07/07/12 18:56:29","144.8089","13.8","212.98","116","60.07","31"
"07/07/12 19:01:28","144.8093","0.0","213.14","0","60.03","31"
"07/07/12 19:11:29","144.8099","0.0","213.64","183","60.0","30"
"07/07/12 19:16:27","144.8101","0.0","213.57","0","60.03","30"
"07/07/12 19:26:27","144.8106","0.0","213.36","0","60.03","29"
"07/07/12 19:36:29","144.811","14.0","212.98","0","60.03","29"
"07/08/12 06:31:28","144.8114","0.8","213.06","0","60.03","18"
"07/08/12 06:36:28","144.8116","11.7","213.17","11","60.0","19"
"07/08/12 06:41:28","144.8118","11.4","213.31","29","60.03","19"
"07/08/12 06:46:28","144.8123","11.4","212.92","0","60.03","19"
"07/08/12 06:51:30","144.8127","0.0","212.43","204","60.0","19"
"07/08/12 06:56:28","144.8132","15.2","212.23","11","60.03","20"
"07/08/12 07:01:28","144.8137","0.0","212.45","0","60.03","20"
"07/08/12 07:06:27","144.8142","7.2","213.0","0","60.0","20"
"07/08/12 07:11:27","144.8153","19.4","213.25","140","60.0","20"
"07/08/12 07:16:28","144.8171","14.8","213.18","59","60.0","21"
"07/08/12 07:21:28","144.8191","32.0","213.81","284","60.03","22"
"07/08/12 07:26:29","144.8214","32.4","213.68","71","60.03","22"
"07/08/12 07:31:27","144.824","31.4","213.87","271","60.03","23"
"07/08/12 07:36:28","144.8268","34.4","215.03","95","60.03","23"
"07/08/12 07:41:28","144.8301","37.4","215.34","298","60.0","24"
"07/08/12 07:46:28","144.8336","53.6","214.9","101","60.03","25"
"07/08/12 07:51:29","144.8374","48.2","215.67","370","60.03","25"
"07/08/12 07:56:27","144.8412","57.2","215.69","180","60.03","26"
"07/08/12 08:01:28","144.8451","55.2","216.06","81","60.03","27"
"07/08/12 08:06:29","144.849","64.6","215.81","325","60.0","27"
"07/08/12 08:11:28","144.8542","68.6","216.11","345","60.0","28"
"07/08/12 08:16:28","144.8596","72.5","215.47","360","60.03","28"
"07/08/12 08:21:51","144.8659","77.4","215.45","382","60.0","29"
"07/08/12 08:26:28","144.8715","80.7","215.44","395","60.03","29"
"07/08/12 08:31:28","144.878","84.4","215.68","412","60.0","30"
"07/08/12 08:36:27","144.8847","88.3","215.88","427","60.03","30"
"07/08/12 08:41:28","144.8918","92.2","215.88","447","60.03","30"
"07/08/12 08:46:29","144.8991","95.7","215.91","461","60.03","31"
"07/08/12 08:51:28","144.9067","99.4","216.22","475","60.0","32"
"07/08/12 08:56:28","144.9145","103.4","215.71","489","60.03","32"
"07/08/12 09:01:28","144.9227","106.0","215.17","507","60.03","33"
"07/08/12 09:06:29","144.931","109.4","215.34","520","60.03","33"
"07/08/12 09:11:28","144.9394","112.3","215.5","531","60.03","34"
"07/08/12 09:16:28","144.9482","115.0","216.06","546","60.03","35"
"07/08/12 09:21:28","144.9573","118.6","216.27","559","59.96","36"
"07/08/12 09:26:28","144.9666","120.9","216.68","567","60.07","37"
"07/08/12 09:31:29","144.9761","122.8","216.25","578","60.03","38"
"07/08/12 09:36:28","144.9857","125.8","216.57","592","60.0","38"
"07/08/12 09:41:29","144.9957","128.4","216.16","603","60.03","39"
"07/08/12 09:46:28","145.0057","131.0","216.4","613","60.03","39"
"07/08/12 09:51:29","145.0161","133.7","215.27","625","60.0","40"
"07/08/12 09:56:28","145.0265","135.7","216.64","632","60.03","41"
"07/08/12 10:01:28","145.0372","140.7","217.44","647","60.03","41"
"07/08/12 10:06:28","145.0482","143.2","217.49","665","60.0","41"
"07/08/12 10:11:28","145.0595","145.0","216.92","672","60.03","41"
"07/08/12 10:16:28","145.0709","150.0","217.46","692","60.0","41"
"07/08/12 10:21:29","145.0827","150.8","217.29","696","60.0","41"
"07/08/12 10:26:29","145.0944","151.0","217.73","695","60.0","41"
"07/08/12 10:31:28","145.1063","153.2","217.67","701","60.0","41"
"07/08/12 10:36:28","145.1184","158.6","217.17","723","60.03","40"
"07/08/12 10:41:29","145.1309","161.2","218.2","736","60.0","39"
"07/08/12 10:46:29","145.1434","163.0","217.25","744","60.03","38"
"07/08/12 10:51:29","145.1562","164.4","216.66","754","60.03","38"
"07/08/12 10:56:29","145.1691","165.5","217.79","756","60.03","38"
"07/08/12 11:01:28","145.182","166.2","218.33","758","60.03","37"
"07/08/12 11:06:28","145.195","167.6","217.5","770","60.03","37"
"07/08/12 11:11:27","145.2081","169.1","217.1","769","60.0","37"
"07/08/12 11:16:29","145.2212","170.3","217.49","772","60.0","37"
"07/08/12 11:21:27","145.2346","172.0","218.06","776","60.03","37"
"07/08/12 11:26:28","145.2479","171.8","218.44","781","60.0","38"
"07/08/12 11:31:28","145.2613","172.6","218.56","779","60.0","38"
"07/08/12 11:36:28","145.2748","173.3","217.77","789","60.03","38"
"07/08/12 11:41:29","145.2884","174.3","217.83","793","60.03","38"
"07/08/12 11:46:28","145.3019","176.2","218.2","792","60.0","38"
"07/08/12 11:51:29","145.3157","175.6","217.67","799","60.03","39"
"07/08/12 11:56:27","145.3293","175.5","217.56","801","60.03","39"
"07/08/12 12:01:28","145.3431","177.9","217.13","805","60.0","38"
"07/08/12 12:06:29","145.3569","178.4","217.56","807","60.03","38"
"07/08/12 12:11:28","145.3709","179.7","217.62","811","60.0","38"
"07/08/12 12:16:29","145.3849","179.4","218.19","807","60.03","38"
"07/08/12 12:21:27","145.3988","179.8","217.76","814","60.0","38"
"07/08/12 12:26:28","145.4127","179.7","217.56","813","60.0","38"
"07/08/12 12:31:29","145.4268","179.3","217.94","809","60.0","38"
"07/08/12 12:36:28","145.4406","179.3","217.28","816","60.0","38"
"07/08/12 12:41:29","145.4547","180.4","217.42","821","60.03","37"
"07/08/12 12:46:27","145.4688","181.9","217.3","826","60.0","36"
"07/08/12 12:51:28","145.4829","181.3","217.18","823","60.03","36"
"07/08/12 12:56:28","145.4971","181.9","217.18","826","60.03","35"
"07/08/12 13:01:29","145.5113","181.2","217.86","822","60.0","35"
"07/08/12 13:06:29","145.5254","179.8","218.12","818","60.03","35"
"07/08/12 13:11:29","145.5394","179.2","217.77","814","60.0","36"
"07/08/12 13:16:27","145.5532","178.8","217.95","814","60.03","36"
"07/08/12 13:21:29","145.5672","178.1","217.45","812","60.03","36"
"07/08/12 13:26:29","145.581","178.1","217.27","810","60.03","35"
"07/08/12 13:31:28","145.5949","177.4","217.58","807","60.03","35"
"07/08/12 13:36:29","145.6086","174.5","217.05","791","60.03","36"
"07/08/12 13:41:28","145.6221","172.7","217.58","783","60.03","37"
"07/08/12 13:46:29","145.6355","171.9","217.74","779","60.03","38"
"07/08/12 13:51:29","145.6489","171.0","217.37","780","60.0","38"
"07/08/12 13:56:28","145.6622","170.5","217.7","777","60.03","38"
"07/08/12 14:01:29","145.6755","170.3","217.5","782","60.03","38"
"07/08/12 14:06:29","145.6888","168.9","217.32","771","60.03","37"
"07/08/12 14:11:28","145.7019","168.1","217.37","771","60.03","37"
"07/08/12 14:16:29","145.7149","165.0","217.5","753","60.03","38"
"07/08/12 14:21:28","145.7277","163.9","217.35","748","60.0","38"
"07/08/12 14:26:28","145.7404","162.5","217.01","745","60.0","38"
"07/08/12 14:31:29","145.753","160.4","216.89","735","60.0","38"
"07/08/12 14:36:28","145.7654","159.4","218.1","728","60.03","38"
"07/08/12 14:41:28","145.7779","157.9","218.37","728","60.03","38"
"07/08/12 14:46:29","145.7902","155.6","217.31","715","60.03","38"
"07/08/12 14:51:29","145.8023","154.7","216.73","711","60.0","38"
"07/08/12 14:56:29","145.8142","151.8","216.46","703","60.03","38"
"07/08/12 15:01:28","145.8259","150.8","216.87","697","60.0","37"
"07/08/12 15:06:28","145.8376","148.5","217.4","686","60.0","37"
"07/08/12 15:11:29","145.8491","145.3","217.18","671","60.03","38"
"07/08/12 15:16:29","145.8603","143.2","216.54","660","60.03","37"
"07/08/12 15:21:29","145.8714","140.3","216.7","649","60.03","37"
"07/08/12 15:26:28","145.8822","137.8","216.97","636","60.03","37"
"07/08/12 15:31:28","145.8928","135.6","217.13","628","60.03","37"
"07/08/12 15:36:28","145.9032","133.5","216.75","622","60.03","36"
"07/08/12 15:41:27","145.9135","130.6","216.75","611","60.03","36"
"07/08/12 15:46:28","145.9235","128.0","216.97","597","60.03","36"
"07/08/12 15:51:27","145.9334","125.5","217.72","583","60.03","35"
"07/08/12 15:56:29","145.9431","122.5","217.85","573","60.0","35"
"07/08/12 16:01:29","145.9525","119.1","217.04","561","60.0","34"
"07/08/12 16:06:29","145.9616","115.5","217.38","545","60.03","34"
"07/08/12 16:11:29","145.9705","113.1","217.31","534","60.0","34"
"07/08/12 16:16:29","145.9792","110.3","216.82","524","60.0","34"
"07/08/12 16:21:28","145.9876","107.2","216.85","507","60.03","33"
"07/08/12 16:26:29","145.9958","103.6","215.09","494","60.03","33"
"07/08/12 16:31:28","146.0037","100.2","215.63","478","60.03","33"
"07/08/12 16:36:28","146.0113","97.1","215.7","464","60.03","33"
"07/08/12 16:41:28","146.0187","93.4","215.2","451","60.03","33"
"07/08/12 16:46:28","146.0258","89.9","215.26","433","60.03","32"
"07/08/12 16:51:29","146.0327","86.1","214.94","422","60.03","32"
"07/08/12 16:56:29","146.0391","82.8","214.82","408","60.03","32"
"07/08/12 17:01:29","146.0454","78.9","215.32","390","60.0","32"
"07/08/12 17:06:28","146.0514","75.7","214.83","379","60.0","31"
"07/08/12 17:11:29","146.0572","71.4","215.25","360","60.03","31"
"07/08/12 17:16:28","146.0626","67.5","214.86","343","60.03","31"
"07/08/12 17:21:29","146.0677","64.0","214.86","325","60.03","30"
"07/08/12 17:26:28","146.0723","52.1","214.93","256","60.03","30"
"07/08/12 17:31:28","146.0762","52.1","215.54","326","60.03","30"
"07/08/12 17:36:27","146.08","49.1","214.75","262","60.03","30"
"07/08/12 17:41:28","146.0841","56.5","214.39","94","60.03","30"
"07/08/12 17:46:29","146.0879","50.3","214.53","311","60.03","30"
"07/08/12 17:51:28","146.0913","34.9","214.32","99","60.03","30"
"07/08/12 17:56:29","146.0942","41.0","213.68","149","60.0","30"
"07/08/12 18:01:29","146.0969","28.3","214.37","266","60.0","30"
"07/08/12 18:06:28","146.0992","26.5","214.93","84","60.03","30"
"07/08/12 18:11:28","146.1014","33.3","213.74","257","60.03","30"
"07/08/12 18:16:29","146.1032","32.0","213.42","122","60.0","30"
"07/08/12 18:21:28","146.1047","11.2","213.9","138","60.03","30"
"07/08/12 18:26:29","146.1061","14.9","213.39","20","60.03","30"
"07/08/12 18:31:29","146.108","19.4","214.09","50","60.03","30"
"07/08/12 18:36:29","146.1097","27.5","214.34","41","60.03","30"
"07/08/12 18:41:29","146.1109","15.3","213.58","14","60.0","29"
"07/08/12 18:46:29","146.1117","11.0","214.03","5","60.03","29"
"07/08/12 18:51:28","146.1122","0.0","213.81","153","60.03","28"
"07/08/12 18:56:28","146.1127","0.0","213.42","0","60.03","28"
"07/08/12 19:01:29","146.1131","0.0","213.87","0","60.0","28"
"07/08/12 19:06:28","146.1134","0.0","213.76","0","60.0","27"
"07/08/12 19:11:28","146.1137","0.0","213.19","0","60.0","27"
"07/08/12 19:16:28","146.114","0.0","213.6","0","60.03","27"
"07/08/12 19:21:28","146.1143","0.0","212.76","0","60.0","27"
"07/08/12 19:26:29","146.1146","0.0","212.87","0","60.03","27"
"07/08/12 19:31:28","146.1149","0.0","213.15","0","60.03","27"
"07/08/12 19:36:28","146.1152","0.0","213.51","0","60.03","26"
"07/09/12 05:51:28","146.1157","13.8","214.98","9","60.03","17"
"07/09/12 05:56:29","146.1161","0.0","215.11","0","60.03","17"
"07/09/12 06:01:29","146.1165","0.0","214.75","0","60.03","18"
"07/09/12 06:06:29","146.117","0.0","214.47","0","60.03","18"
"07/09/12 06:11:28","146.1174","0.0","213.74","0","60.03","19"
"07/09/12 06:16:28","146.1178","0.0","214.52","0","60.0","19"
"07/09/12 06:21:29","146.118","0.0","214.46","0","60.03","19"
"07/09/12 06:26:29","146.1185","10.3","215.05","0","60.0","19"
"07/09/12 06:31:29","146.119","0.0","212.39","132","60.03","19"
"07/09/12 06:36:30","146.1196","13.8","212.95","2","60.0","20"
"07/09/12 06:41:29","146.1202","0.0","217.26","185","60.03","20"
"07/09/12 06:46:30","146.1208","6.0","213.72","241","60.07","20"
"07/09/12 06:51:28","146.1215","10.8","213.65","36","60.03","21"
"07/09/12 06:56:30","146.1225","16.1","214.52","11","60.0","22"
"07/09/12 07:01:28","146.1233","12.2","215.19","3","60.0","22"
"07/09/12 07:06:30","146.1243","14.6","215.03","21","60.0","22"
"07/09/12 07:11:28","146.1259","11.8","213.85","269","60.03","23"
"07/09/12 07:16:29","146.1278","30.6","214.69","23","60.0","23"
"07/09/12 07:21:29","146.13","31.2","214.64","222","60.0","24"
"07/09/12 07:26:29","146.1326","31.8","214.54","80","60.07","24"
"07/09/12 07:31:30","146.1356","34.2","214.56","253","60.03","24"
"07/09/12 07:36:30","146.1379","30.7","213.92","298","60.03","24"
"07/09/12 07:41:29","146.1411","50.0","214.5","358","60.03","25"
"07/09/12 07:46:30","146.144","23.6","213.36","205","60.03","25"
"07/09/12 07:51:28","146.1458","12.9","212.39","104","60.0","25"
"07/09/12 07:56:29","146.1493","42.6","214.14","385","60.0","25"
"07/09/12 08:01:28","146.1531","56.5","214.11","84","60.03","26"
"07/09/12 08:06:28","146.1569","45.2","214.64","336","60.03","27"
"07/09/12 08:11:28","146.1608","62.5","214.74","324","60.0","27"
"07/09/12 08:16:29","146.1647","69.4","216.71","347","60.0","27"
"07/09/12 08:21:28","146.1707","78.8","217.02","389","60.03","28"
"07/09/12 08:26:30","146.177","81.7","216.75","396","60.0","29"
"07/09/12 08:31:29","146.1834","85.2","216.29","416","60.0","30"
"07/09/12 08:36:29","146.1904","93.8","216.83","452","60.03","31"
"07/09/12 08:41:29","146.1981","106.2","215.36","504","60.0","32"
"07/09/12 08:46:28","146.2037","45.6","213.85","169","60.0","32"
"07/09/12 08:51:30","146.2085","119.7","216.17","564","60.03","32"
"07/09/12 08:56:29","146.2168","114.2","216.16","539","60.07","32"
"07/09/12 09:01:29","146.2254","42.5","215.5","216","60.03","33"
"07/09/12 09:06:28","146.2341","116.2","217.76","542","60.0","33"
"07/09/12 09:11:30","146.2432","117.1","216.23","551","60.03","33"
"07/09/12 09:16:29","146.2523","119.0","216.61","558","60.0","34"
"07/09/12 09:21:29","146.2616","120.1","216.94","563","60.0","35"
"07/09/12 09:26:28","146.271","122.7","216.18","575","60.0","36"
"07/09/12 09:31:29","146.2806","123.7","216.52","582","60.03","37"
"07/09/12 09:36:28","146.2904","126.2","217.67","586","60.03","38"
"07/09/12 09:41:29","146.3003","129.5","217.41","602","60.03","38"
"07/09/12 09:46:29","146.3106","132.7","217.67","615","60.03","39"
"07/09/12 09:51:28","146.321","135.5","217.75","625","60.03","39"
"07/09/12 09:56:28","146.3317","138.8","217.65","642","60.03","39"
"07/09/12 10:01:28","146.3427","142.5","217.09","664","60.07","39"
"07/09/12 10:06:29","146.354","145.3","216.92","669","60.03","38"
"07/09/12 10:11:28","146.3653","148.9","218.1","682","60.03","38"
"07/09/12 10:16:28","146.3774","172.1","218.95","776","60.0","39"
"07/09/12 10:21:30","146.3856","41.6","214.75","294","60.03","37"
"07/09/12 10:26:29","146.3892","26.5","215.55","155","60.0","35"
"07/09/12 10:31:30","146.3909","11.0","214.58","13","60.03","32"
"07/09/12 10:36:29","146.3925","24.8","214.79","210","60.0","30"
"07/09/12 10:41:28","146.3951","37.9","214.99","125","60.0","29"
"07/09/12 10:46:29","146.4052","143.9","215.43","671","60.03","29"
"07/09/12 10:51:29","146.4174","195.5","216.5","892","60.03","30"
"07/09/12 10:56:29","146.4267","128.5","218.12","601","60.03","30"
"07/09/12 11:01:28","146.4355","72.5","215.89","361","60.0","30"
"07/09/12 11:06:28","146.4446","81.3","215.73","395","60.0","30"
"07/09/12 11:11:29","146.4512","63.6","214.66","176","60.03","29"
"07/09/12 11:16:30","146.4542","29.4","214.66","289","60.0","28"
"07/09/12 11:21:28","146.4578","96.1","215.97","463","60.03","28"
"07/09/12 11:26:28","146.4698","196.5","218.97","884","60.03","29"
"07/09/12 11:31:29","146.4842","195.9","218.83","882","60.0","31"
"07/09/12 11:36:30","146.4995","195.4","217.19","886","60.03","32"
"07/09/12 11:41:28","146.5087","61.8","214.19","314","60.0","31"
"07/09/12 11:46:29","146.5139","126.8","214.35","600","60.0","31"
"07/09/12 11:51:29","146.521","92.5","214.35","449","60.03","30"
"07/09/12 11:56:29","146.5327","102.0","215.0","489","60.0","31"
"07/09/12 12:01:30","146.5398","96.0","214.79","461","60.03","31"
"07/09/12 12:06:28","146.549","195.9","217.84","895","60.03","32"
"07/09/12 12:11:28","146.5634","162.0","216.96","746","60.0","34"
"07/09/12 12:16:29","146.5781","192.7","217.7","869","60.0","36"
"07/09/12 12:21:28","146.5928","191.1","216.42","866","60.0","37"
"07/09/12 12:26:28","146.6067","195.6","215.53","891","60.0","38"
"07/09/12 12:31:28","146.6212","187.2","216.79","853","60.0","39"
"07/09/12 12:36:29","146.6362","194.9","217.48","884","60.03","40"
"07/09/12 12:41:28","146.6432","48.6","214.3","252","60.0","39"
"07/09/12 12:46:29","146.6467","43.4","214.36","376","60.03","38"
"07/09/12 12:51:28","146.6529","85.6","215.13","419","60.03","37"
"07/09/12 12:56:29","146.6653","190.8","217.8","872","60.07","38"
"07/09/12 13:01:30","146.6785","88.7","215.73","431","60.03","38"
"07/09/12 13:06:28","146.6889","65.4","215.15","333","60.0","38"
"07/09/12 13:11:30","146.6963","73.2","213.36","329","60.0","38"
"07/09/12 13:16:28","146.7105","195.3","217.0","888","60.0","40"
"07/09/12 13:21:29","146.7225","54.0","214.53","368","60.03","39"
"07/09/12 13:26:28","146.7273","88.7","215.13","431","60.0","38"
"07/09/12 13:31:29","146.7415","182.2","217.96","828","60.0","40"
"07/09/12 13:36:29","146.7555","176.2","218.11","798","60.03","40"
"07/09/12 13:41:28","146.769","173.3","218.09","791","60.03","40"
"07/09/12 13:46:29","146.7825","173.6","218.06","787","60.03","40"
"07/09/12 13:51:29","146.7962","172.4","217.95","781","60.03","40"
"07/09/12 13:56:30","146.8086","66.5","215.05","360","60.03","40"
"07/09/12 14:01:30","146.8209","176.2","217.55","801","60.03","40"
"07/09/12 14:06:28","146.8346","174.2","217.31","792","60.03","40"
"07/09/12 14:11:29","146.8482","185.0","217.67","838","60.03","41"